STARLINK-11566 [DTC] (62914 NORAD) Tracking and Keplerian Element Data

This shows tracking and keplerian element data for the satellite.

Feedback or suggestion? Click here.




ElementValue
Catalog62914
NameSTARLINK-11566 [DTC]
Epoch Orbit5060
Epoch Day353.66668439
Epoch Year2025
RAAN110.2767
Inclination43.0015
Eccentricity0.0002401
Argument of Perigee263.4156
Mean Anonmoly96.6439
Mean Motion15.70887519
Decay Rate0.00150139
L11 62914U 25027H 25353.66668439 .00150139 00000+0 11502-2 0 9993
L22 62914 43.0015 110.2767 0002401 263.4156 96.6439 15.70887519 50604



Live tracking and technical data element details for STARLINK-11566 [DTC] (NORAD 62914). STARLINK-11566 [DTC] can be tracked NOW for your location showing map with azimuth and elevation plus other details from your city location.







IsCatalogInMostPopularTable: catalog: 62914, numindb: 2
Update: records affected: 1



GetName: 62914 STARLINK-11566 [DTC]

Hit Count: updated at: Sat, 07 Feb 2026 08:45:04 GMT